Time,TemperatureF,DewpointF,PressureIn,WindDirection,WindDirectionDegrees,WindSpeedMPH,WindSpeedGustMPH,Humidity,HourlyPrecipIn,Conditions,Clouds,dailyrainin,SoftwareType,DateUTC
2013-01-03 00:23:00,44.0,33.0,-100.00,NE,38,4.0,-999.0,64,0.00,,,-99.99,,2013-01-03 08:23:00,
2013-01-03 00:33:00,44.0,33.0,-100.00,NE,38,4.0,-999.0,64,0.00,,,-99.99,,2013-01-03 08:33:00,
2013-01-03 01:00:00,41.0,34.0,-100.00,NNE,13,5.0,-999.0,74,0.00,,,-99.99,,2013-01-03 09:00:00,
2013-01-03 01:22:00,41.0,34.0,-100.00,NNE,13,5.0,-999.0,74,0.00,,,-99.99,,2013-01-03 09:22:00,
2013-01-03 01:34:00,41.0,34.0,-100.00,NNE,13,5.0,-999.0,74,0.00,,,-99.99,,2013-01-03 09:34:00,
2013-01-03 02:00:00,38.0,34.0,-100.00,North,8,10.0,-999.0,84,0.00,,,-99.99,,2013-01-03 10:00:00,
2013-01-03 02:23:00,38.0,34.0,-100.00,North,8,10.0,-999.0,84,0.00,,,-99.99,,2013-01-03 10:23:00,
2013-01-03 02:33:00,38.0,34.0,-100.00,North,8,10.0,-999.0,84,0.00,,,-99.99,,2013-01-03 10:33:00,
2013-01-03 02:43:00,38.0,34.0,-100.00,North,8,10.0,-999.0,84,0.00,,,-99.99,,2013-01-03 10:43:00,
2013-01-03 02:52:00,38.0,34.0,-100.00,North,8,10.0,-999.0,84,0.00,,,-99.99,,2013-01-03 10:52:00,
2013-01-03 03:00:00,38.0,33.0,-100.00,North,349,5.0,-999.0,81,0.00,,,-99.99,,2013-01-03 11:00:00,
2013-01-03 03:33:00,38.0,33.0,-100.00,North,349,5.0,-999.0,81,0.00,,,-99.99,,2013-01-03 11:33:00,
2013-01-03 04:00:00,36.0,32.0,-100.00,North,3,9.0,-999.0,87,0.00,,,-99.99,,2013-01-03 12:00:00,
2013-01-03 04:22:00,36.0,32.0,-100.00,North,3,9.0,-999.0,87,0.00,,,-99.99,,2013-01-03 12:22:00,
2013-01-03 04:33:00,36.0,32.0,-100.00,North,3,9.0,-999.0,87,0.00,,,-99.99,,2013-01-03 12:33:00,
2013-01-03 04:43:00,36.0,32.0,-100.00,North,3,9.0,-999.0,87,0.00,,,-99.99,,2013-01-03 12:43:00,
2013-01-03 04:53:00,36.0,32.0,-100.00,North,3,9.0,-999.0,87,0.00,,,-99.99,,2013-01-03 12:53:00,
2013-01-03 05:00:00,36.0,32.0,-100.00,North,359,15.0,-999.0,87,0.00,,,-99.99,,2013-01-03 13:00:00,
2013-01-03 05:22:00,36.0,32.0,-100.00,North,359,15.0,-999.0,87,0.00,,,-99.99,,2013-01-03 13:22:00,
2013-01-03 05:33:00,36.0,32.0,-100.00,North,359,15.0,-999.0,87,0.00,,,-99.99,,2013-01-03 13:33:00,
2013-01-03 05:42:00,36.0,32.0,-100.00,North,359,15.0,-999.0,87,0.00,,,-99.99,,2013-01-03 13:42:00,
2013-01-03 05:53:00,36.0,32.0,-100.00,North,359,15.0,-999.0,87,0.00,,,-99.99,,2013-01-03 13:53:00,
2013-01-03 06:00:00,36.0,32.0,-100.00,North,0,8.0,-999.0,86,0.00,,,-99.99,,2013-01-03 14:00:00,
2013-01-03 06:23:00,36.0,32.0,-100.00,North,0,8.0,-999.0,86,0.00,,,-99.99,,2013-01-03 14:23:00,
2013-01-03 06:33:00,36.0,32.0,-100.00,North,0,8.0,-999.0,86,0.00,,,-99.99,,2013-01-03 14:33:00,
2013-01-03 06:43:00,36.0,32.0,-100.00,North,0,8.0,-999.0,86,0.00,,,-99.99,,2013-01-03 14:43:00,
2013-01-03 06:53:00,36.0,32.0,-100.00,North,0,8.0,-999.0,86,0.00,,,-99.99,,2013-01-03 14:53:00,
2013-01-03 07:23:00,37.0,32.0,-100.00,North,1,8.0,-999.0,82,0.00,,,-99.99,,2013-01-03 15:23:00,
2013-01-03 07:34:00,37.0,32.0,-100.00,North,1,8.0,-999.0,82,0.00,,,-99.99,,2013-01-03 15:34:00,
2013-01-03 08:00:00,35.0,31.0,-100.00,North,11,5.0,-999.0,85,0.00,,,-99.99,,2013-01-03 16:00:00,
2013-01-03 08:23:00,35.0,31.0,-100.00,North,11,5.0,-999.0,85,0.00,,,-99.99,,2013-01-03 16:23:00,
2013-01-03 08:34:00,35.0,31.0,-100.00,North,11,5.0,-999.0,85,0.00,,,-99.99,,2013-01-03 16:34:00,
2013-01-03 08:43:00,35.0,31.0,-100.00,North,11,5.0,-999.0,85,0.00,,,-99.99,,2013-01-03 16:43:00,
2013-01-03 08:53:00,35.0,31.0,-100.00,North,11,5.0,-999.0,85,0.00,,,-99.99,,2013-01-03 16:53:00,
2013-01-03 09:00:00,33.0,31.0,-100.00,NNE,25,7.0,-999.0,90,0.00,,,-99.99,,2013-01-03 17:00:00,
2013-01-03 09:23:00,33.0,31.0,-100.00,NNE,25,7.0,-999.0,90,0.00,,,-99.99,,2013-01-03 17:23:00,
2013-01-03 09:33:00,33.0,31.0,-100.00,NNE,25,7.0,-999.0,90,0.00,,,-99.99,,2013-01-03 17:33:00,
2013-01-03 09:43:00,33.0,31.0,-100.00,NNE,25,7.0,-999.0,90,0.00,,,-99.99,,2013-01-03 17:43:00,
2013-01-03 09:53:00,33.0,31.0,-100.00,NNE,25,7.0,-999.0,90,0.00,,,-99.99,,2013-01-03 17:53:00,
2013-01-03 10:00:00,38.0,33.0,-100.00,NNE,18,10.0,-999.0,82,0.00,,,-99.99,,2013-01-03 18:00:00,
2013-01-03 10:23:00,38.0,33.0,-100.00,NNE,18,10.0,-999.0,82,0.00,,,-99.99,,2013-01-03 18:23:00,
2013-01-03 10:33:00,38.0,33.0,-100.00,NNE,18,10.0,-999.0,82,0.00,,,-99.99,,2013-01-03 18:33:00,
2013-01-03 10:43:00,38.0,33.0,-100.00,NNE,18,10.0,-999.0,82,0.00,,,-99.99,,2013-01-03 18:43:00,
2013-01-03 10:53:00,38.0,33.0,-100.00,NNE,18,10.0,-999.0,82,0.00,,,-99.99,,2013-01-03 18:53:00,
2013-01-03 11:00:00,42.0,36.0,-100.00,NE,45,6.0,-999.0,77,0.00,,,-99.99,,2013-01-03 19:00:00,
2013-01-03 11:56:00,42.0,36.0,-100.00,NE,45,6.0,-999.0,77,0.00,,,-99.99,,2013-01-03 19:56:00,
2013-01-03 12:00:00,45.0,34.0,-100.00,NNE,26,2.0,-999.0,64,0.00,,,-99.99,,2013-01-03 20:00:00,
2013-01-03 12:23:00,45.0,34.0,-100.00,NNE,26,2.0,-999.0,64,0.00,,,-99.99,,2013-01-03 20:23:00,
2013-01-03 12:33:00,45.0,34.0,-100.00,NNE,26,2.0,-999.0,64,0.00,,,-99.99,,2013-01-03 20:33:00,
2013-01-03 12:43:00,45.0,34.0,-100.00,NNE,26,2.0,-999.0,64,0.00,,,-99.99,,2013-01-03 20:43:00,
2013-01-03 12:53:00,45.0,34.0,-100.00,NNE,26,2.0,-999.0,64,0.00,,,-99.99,,2013-01-03 20:53:00,
2013-01-03 13:00:00,48.0,34.0,-100.00,ENE,62,2.0,-999.0,57,0.00,,,-99.99,,2013-01-03 21:00:00,
2013-01-03 13:23:00,48.0,34.0,-100.00,ENE,62,2.0,-999.0,57,0.00,,,-99.99,,2013-01-03 21:23:00,
2013-01-03 13:37:00,48.0,34.0,-100.00,ENE,62,2.0,-999.0,57,0.00,,,-99.99,,2013-01-03 21:37:00,
2013-01-03 13:50:00,48.0,34.0,-100.00,ENE,62,2.0,-999.0,57,0.00,,,-99.99,,2013-01-03 21:50:00,
2013-01-03 14:00:00,51.0,34.0,-100.00,ESE,122,7.0,-999.0,52,0.00,,,-99.99,,2013-01-03 22:00:00,
2013-01-03 14:22:00,51.0,34.0,-100.00,ESE,122,7.0,-999.0,52,0.00,,,-99.99,,2013-01-03 22:22:00,
2013-01-03 14:33:00,51.0,34.0,-100.00,ESE,122,7.0,-999.0,52,0.00,,,-99.99,,2013-01-03 22:33:00,
2013-01-03 14:43:00,51.0,34.0,-100.00,ESE,122,7.0,-999.0,52,0.00,,,-99.99,,2013-01-03 22:43:00,
2013-01-03 14:52:00,51.0,34.0,-100.00,ESE,122,7.0,-999.0,52,0.00,,,-99.99,,2013-01-03 22:52:00,
2013-01-03 15:00:00,52.0,35.0,-100.00,SE,125,9.0,-999.0,50,0.00,,,-99.99,,2013-01-03 23:00:00,
2013-01-03 15:23:00,52.0,35.0,-100.00,SE,125,9.0,-999.0,50,0.00,,,-99.99,,2013-01-03 23:23:00,
2013-01-03 15:33:00,52.0,35.0,-100.00,SE,125,9.0,-999.0,50,0.00,,,-99.99,,2013-01-03 23:33:00,
2013-01-03 15:43:00,52.0,35.0,-100.00,SE,125,9.0,-999.0,50,0.00,,,-99.99,,2013-01-03 23:43:00,
2013-01-03 15:53:00,52.0,35.0,-100.00,SE,125,9.0,-999.0,50,0.00,,,-99.99,,2013-01-03 23:53:00,
2013-01-03 16:00:00,53.0,36.0,-100.00,SSE,167,7.0,-999.0,53,0.00,,,-99.99,,2013-01-04 00:00:00,
2013-01-03 16:23:00,53.0,36.0,-100.00,SSE,167,7.0,-999.0,53,0.00,,,-99.99,,2013-01-04 00:23:00,
2013-01-03 16:33:00,53.0,36.0,-100.00,SSE,167,7.0,-999.0,53,0.00,,,-99.99,,2013-01-04 00:33:00,
2013-01-03 16:42:00,53.0,36.0,-100.00,SSE,167,7.0,-999.0,53,0.00,,,-99.99,,2013-01-04 00:42:00,
2013-01-03 16:52:00,53.0,36.0,-100.00,SSE,167,7.0,-999.0,53,0.00,,,-99.99,,2013-01-04 00:52:00,
2013-01-03 17:00:00,51.0,37.0,-100.00,South,170,4.0,-999.0,58,0.00,,,-99.99,,2013-01-04 01:00:00,
2013-01-03 17:22:00,51.0,37.0,-100.00,South,170,4.0,-999.0,58,0.00,,,-99.99,,2013-01-04 01:22:00,
2013-01-03 17:33:00,51.0,37.0,-100.00,South,170,4.0,-999.0,58,0.00,,,-99.99,,2013-01-04 01:33:00,
2013-01-03 17:42:00,51.0,37.0,-100.00,South,170,4.0,-999.0,58,0.00,,,-99.99,,2013-01-04 01:42:00,
2013-01-03 17:52:00,51.0,37.0,-100.00,South,170,4.0,-999.0,58,0.00,,,-99.99,,2013-01-04 01:52:00,
2013-01-03 18:00:00,50.0,36.0,-100.00,ESE,110,4.0,-999.0,57,0.00,,,-99.99,,2013-01-04 02:00:00,
2013-01-03 18:22:00,50.0,36.0,-100.00,ESE,110,4.0,-999.0,57,0.00,,,-99.99,,2013-01-04 02:22:00,
2013-01-03 18:33:00,50.0,36.0,-100.00,ESE,110,4.0,-999.0,57,0.00,,,-99.99,,2013-01-04 02:33:00,
2013-01-03 18:42:00,50.0,36.0,-100.00,ESE,110,4.0,-999.0,57,0.00,,,-99.99,,2013-01-04 02:42:00,
2013-01-03 18:53:00,50.0,36.0,-100.00,ESE,110,4.0,-999.0,57,0.00,,,-99.99,,2013-01-04 02:53:00,
2013-01-03 19:00:00,49.0,36.0,-100.00,South,171,1.0,-999.0,60,0.00,,,-99.99,,2013-01-04 03:00:00,
2013-01-03 19:22:00,49.0,36.0,-100.00,South,171,1.0,-999.0,60,0.00,,,-99.99,,2013-01-04 03:22:00,
2013-01-03 19:33:00,49.0,36.0,-100.00,South,171,1.0,-999.0,60,0.00,,,-99.99,,2013-01-04 03:33:00,
2013-01-03 19:43:00,49.0,36.0,-100.00,South,171,1.0,-999.0,60,0.00,,,-99.99,,2013-01-04 03:43:00,
2013-01-03 19:52:00,49.0,36.0,-100.00,South,171,1.0,-999.0,60,0.00,,,-99.99,,2013-01-04 03:52:00,
2013-01-03 20:00:00,47.0,36.0,-100.00,NE,49,1.0,-999.0,64,0.00,,,-99.99,,2013-01-04 04:00:00,
2013-01-03 20:22:00,47.0,36.0,-100.00,NE,49,1.0,-999.0,64,0.00,,,-99.99,,2013-01-04 04:22:00,
2013-01-03 20:32:00,47.0,36.0,-100.00,NE,49,1.0,-999.0,64,0.00,,,-99.99,,2013-01-04 04:32:00,
2013-01-03 20:42:00,47.0,36.0,-100.00,NE,49,1.0,-999.0,64,0.00,,,-99.99,,2013-01-04 04:42:00,
2013-01-03 20:52:00,47.0,36.0,-100.00,NE,49,1.0,-999.0,64,0.00,,,-99.99,,2013-01-04 04:52:00,
2013-01-03 21:00:00,46.0,37.0,-100.00,South,171,2.0,-999.0,69,0.00,,,-99.99,,2013-01-04 05:00:00,
2013-01-03 21:22:00,46.0,37.0,-100.00,South,171,2.0,-999.0,69,0.00,,,-99.99,,2013-01-04 05:22:00,
2013-01-03 21:33:00,46.0,37.0,-100.00,South,171,2.0,-999.0,69,0.00,,,-99.99,,2013-01-04 05:33:00,
2013-01-03 21:42:00,46.0,37.0,-100.00,South,171,2.0,-999.0,69,0.00,,,-99.99,,2013-01-04 05:42:00,
2013-01-03 21:52:00,46.0,37.0,-100.00,South,171,2.0,-999.0,69,0.00,,,-99.99,,2013-01-04 05:52:00,
2013-01-03 22:22:00,46.0,36.0,-100.00,SE,127,2.0,-999.0,69,0.00,,,-99.99,,2013-01-04 06:22:00,
2013-01-03 22:33:00,46.0,36.0,-100.00,SE,127,2.0,-999.0,69,0.00,,,-99.99,,2013-01-04 06:33:00,
2013-01-03 23:00:00,44.0,36.0,-100.00,NNE,32,2.0,-999.0,72,0.00,,,-99.99,,2013-01-04 07:00:00,
2013-01-03 23:22:00,44.0,36.0,-100.00,NNE,32,2.0,-999.0,72,0.00,,,-99.99,,2013-01-04 07:22:00,
2013-01-03 23:32:00,44.0,36.0,-100.00,NNE,32,2.0,-999.0,72,0.00,,,-99.99,,2013-01-04 07:32:00,
2013-01-03 23:42:00,44.0,36.0,-100.00,NNE,32,2.0,-999.0,72,0.00,,,-99.99,,2013-01-04 07:42:00,
2013-01-03 23:52:00,44.0,36.0,-100.00,NNE,32,2.0,-999.0,72,0.00,,,-99.99,,2013-01-04 07:52:00,